When you browse on this site, cookies collect data to enhance your experience and personalize the content and advertising you see.
Visit our Privacy Policy to learn more. By continuing to use the site, you agree to this use of cookies and data.
EN

Hourly Weather Nyiregyhaza

Today, 14 July, Tuesday

Time Temperature Precipitation Wind Pressure Humidity
00:00 +12°C° 0 mm 3 mps 755 mmHg 80%
01:00 +11°C° 0 mm 3 mps 756 mmHg 78%
02:00 +11°C° 0 mm 3 mps 755 mmHg 81%
03:00 +10°C° 0 mm 3 mps 755 mmHg 83%
04:00 +10°C° 0 mm 3 mps 755 mmHg 85%
05:00 +12°C° 0 mm 3 mps 755 mmHg 82%
06:00 +13°C° 0 mm 3 mps 754 mmHg 79%
07:00 +16°C° 0 mm 3 mps 754 mmHg 76%
08:00 +17°C° 0 mm 3 mps 754 mmHg 70%
09:00 +19°C° 0 mm 3 mps 754 mmHg 64%
10:00 +20°C° 0 mm 3 mps 754 mmHg 58%
11:00 +21°C° 0 mm 3 mps 753 mmHg 56%
12:00 +22°C° 0 mm 3 mps 753 mmHg 54%
13:00 +23°C° 0 mm 2 mps 753 mmHg 52%
14:00 +23°C° 0 mm 2 mps 752 mmHg 52%
15:00 +24°C° 0 mm 2 mps 752 mmHg 52%
16:00 +24°C° 0 mm 2 mps 752 mmHg 52%
17:00 +22°C° 0 mm 1 mps 752 mmHg 58%
18:00 +21°C° 0 mm 1 mps 752 mmHg 63%
19:00 +20°C° 0 mm 1 mps 752 mmHg 68%
20:00 +19°C° 0 mm 1 mps 752 mmHg 69%
21:00 +16°C° 0 mm 0 mps 752 mmHg 70%
22:00 +15°C° 0 mm 0 mps 752 mmHg 72%
23:00 +16°C° 0 mm 1 mps 752 mmHg 74%

Tomorrow, 15 July, Wednesday

Time Temperature Precipitation Wind Pressure Humidity
00:00 +15°C° 0 mm 1 mps 752 mmHg 76%
01:00 +15°C° 0 mm 1 mps 752 mmHg 78%
02:00 +14°C° 0 mm 1 mps 752 mmHg 80%
03:00 +14°C° 0 mm 1 mps 752 mmHg 82%
04:00 +13°C° 0 mm 2 mps 751 mmHg 85%
05:00 +15°C° 0 mm 2 mps 752 mmHg 81%
06:00 +16°C° 0 mm 2 mps 752 mmHg 78%
07:00 +18°C° 0 mm 2 mps 752 mmHg 75%
08:00 +19°C° 0 mm 2 mps 752 mmHg 70%
09:00 +21°C° 0 mm 2 mps 752 mmHg 66%
10:00 +23°C° 0 mm 1 mps 752 mmHg 61%
11:00 +24°C° 0 mm 2 mps 752 mmHg 57%
12:00 +25°C° 0 mm 2 mps 751 mmHg 54%
13:00 +26°C° 0 mm 2 mps 751 mmHg 50%
14:00 +26°C° 0 mm 2 mps 751 mmHg 50%
15:00 +26°C° 0 mm 2 mps 751 mmHg 51%
16:00 +26°C° 0 mm 2 mps 751 mmHg 51%
17:00 +24°C° 0 mm 1 mps 751 mmHg 57%
18:00 +23°C° 0 mm 1 mps 751 mmHg 63%
19:00 +21°C° 0 mm 1 mps 751 mmHg 69%
20:00 +20°C° 0 mm 1 mps 751 mmHg 70%
21:00 +19°C° 0 mm 1 mps 751 mmHg 71%
22:00 +17°C° 0 mm 0 mps 751 mmHg 73%
23:00 +16°C° 0 mm 0 mps 751 mmHg 73%

Day after tomorrow, 16 July, Thursday

Time Temperature Precipitation Wind Pressure Humidity
00:00 +16°C° 0 mm 0 mps 751 mmHg 74%
01:00 +16°C° 0 mm 0 mps 751 mmHg 74%
02:00 +15°C° 0 mm 0 mps 751 mmHg 76%
03:00 +16°C° 0 mm 1 mps 750 mmHg 78%
04:00 +15°C° 0 mm 1 mps 750 mmHg 81%
05:00 +18°C° 0 mm 1 mps 750 mmHg 77%
06:00 +17°C° 0 mm 0 mps 750 mmHg 74%
07:00 +19°C° 0 mm 0 mps 751 mmHg 71%
08:00 +22°C° 0 mm 1 mps 750 mmHg 66%
09:00 +23°C° 0 mm 1 mps 750 mmHg 62%
10:00 +25°C° 0 mm 2 mps 750 mmHg 57%
11:00 +26°C° 0 mm 2 mps 750 mmHg 55%
12:00 +26°C° 0 mm 3 mps 750 mmHg 53%
13:00 +27°C° 0 mm 3 mps 750 mmHg 52%
14:00 +27°C° 0.2 mm 3 mps 750 mmHg 55%
15:00 +27°C° 0.2 mm 3 mps 749 mmHg 58%
16:00 +26°C° 0.2 mm 3 mps 749 mmHg 61%
17:00 +25°C° 0.4 mm 3 mps 749 mmHg 67%
18:00 +23°C° 0.4 mm 2 mps 750 mmHg 74%
19:00 +21°C° 0.4 mm 2 mps 750 mmHg 80%
20:00 +19°C° 0 mm 2 mps 750 mmHg 83%
21:00 +18°C° 0 mm 2 mps 750 mmHg 86%
22:00 +17°C° 0 mm 2 mps 750 mmHg 89%
23:00 +17°C° 0 mm 2 mps 750 mmHg 89%

17 July, Friday

Time Temperature Precipitation Wind Pressure Humidity
00:00 +17°C° 0 mm 2 mps 750 mmHg 88%
01:00 +17°C° 0 mm 2 mps 750 mmHg 88%
02:00 +16°C° 0 mm 2 mps 750 mmHg 89%
03:00 +16°C° 0 mm 2 mps 750 mmHg 89%
04:00 +15°C° 0 mm 2 mps 749 mmHg 90%
05:00 +16°C° 0 mm 2 mps 750 mmHg 87%
06:00 +17°C° 0 mm 3 mps 750 mmHg 85%
07:00 +18°C° 0 mm 3 mps 750 mmHg 82%
08:00 +19°C° 0 mm 3 mps 750 mmHg 79%
09:00 +20°C° 0 mm 4 mps 750 mmHg 76%
10:00 +21°C° 0 mm 4 mps 750 mmHg 73%
11:00 +20°C° 0 mm 4 mps 750 mmHg 73%
12:00 +20°C° 0 mm 4 mps 750 mmHg 72%
13:00 +20°C° 0 mm 4 mps 750 mmHg 72%
14:00 +20°C° 0 mm 4 mps 750 mmHg 73%
15:00 +19°C° 0 mm 3 mps 750 mmHg 75%
16:00 +19°C° 0 mm 3 mps 750 mmHg 76%
17:00 +18°C° 0 mm 2 mps 750 mmHg 78%
18:00 +18°C° 0 mm 2 mps 750 mmHg 80%
19:00 +18°C° 0 mm 1 mps 750 mmHg 82%
20:00 +18°C° 0.2 mm 1 mps 750 mmHg 84%
21:00 +16°C° 0.2 mm 1 mps 751 mmHg 85%
22:00 +16°C° 0.2 mm 1 mps 751 mmHg 87%
23:00 +16°C° 0.1 mm 1 mps 751 mmHg 87%

18 July, Saturday

Time Temperature Precipitation Wind Pressure Humidity
00:00 +15°C° 0.1 mm 0 mps 751 mmHg 86%
01:00 +15°C° 0.1 mm 0 mps 751 mmHg 86%
02:00 +15°C° 0 mm 0 mps 751 mmHg 88%
03:00 +14°C° 0 mm 0 mps 751 mmHg 89%
04:00 +14°C° 0 mm 0 mps 750 mmHg 91%
05:00 +16°C° 0 mm 1 mps 751 mmHg 89%
06:00 +18°C° 0 mm 1 mps 751 mmHg 86%
07:00 +18°C° 0 mm 1 mps 751 mmHg 84%
08:00 +19°C° 0.1 mm 1 mps 751 mmHg 82%
09:00 +20°C° 0.1 mm 1 mps 751 mmHg 80%
10:00 +19°C° 0.1 mm 2 mps 751 mmHg 78%
11:00 +20°C° 0.2 mm 2 mps 751 mmHg 75%
12:00 +22°C° 0.2 mm 1 mps 750 mmHg 72%
13:00 +23°C° 0.2 mm 1 mps 750 mmHg 68%
14:00 +23°C° 0.8 mm 2 mps 750 mmHg 70%
15:00 +23°C° 0.8 mm 2 mps 750 mmHg 71%
16:00 +23°C° 0.8 mm 2 mps 750 mmHg 72%
17:00 +21°C° 0.7 mm 2 mps 750 mmHg 77%
18:00 +20°C° 0.7 mm 2 mps 750 mmHg 82%
19:00 +19°C° 0.7 mm 2 mps 750 mmHg 86%
20:00 +18°C° 0.2 mm 2 mps 750 mmHg 88%
21:00 +17°C° 0.2 mm 2 mps 750 mmHg 91%
22:00 +17°C° 0.2 mm 2 mps 751 mmHg 93%
23:00 +17°C° 0.2 mm 2 mps 751 mmHg 94%

19 July, Sunday

Time Temperature Precipitation Wind Pressure Humidity
00:00 +16°C° 0.2 mm 1 mps 751 mmHg 94%
01:00 +16°C° 0.2 mm 1 mps 750 mmHg 95%
02:00 +16°C° 0.4 mm 1 mps 750 mmHg 95%
03:00 +16°C° 0.4 mm 1 mps 750 mmHg 96%
04:00 +16°C° 0.4 mm 1 mps 750 mmHg 96%
05:00 +18°C° 0.3 mm 1 mps 750 mmHg 94%
06:00 +18°C° 0.3 mm 1 mps 750 mmHg 93%
07:00 +19°C° 0.3 mm 1 mps 750 mmHg 91%
08:00 +20°C° 0.5 mm 1 mps 750 mmHg 86%
09:00 +21°C° 0.5 mm 1 mps 750 mmHg 81%
10:00 +21°C° 0.5 mm 2 mps 750 mmHg 77%
11:00 +23°C° 0.9 mm 2 mps 750 mmHg 74%
12:00 +23°C° 0.9 mm 2 mps 750 mmHg 72%
13:00 +24°C° 0.9 mm 2 mps 750 mmHg 70%
14:00 +24°C° 0.7 mm 2 mps 750 mmHg 70%
15:00 +24°C° 0.7 mm 2 mps 749 mmHg 70%
16:00 +24°C° 0.7 mm 2 mps 749 mmHg 69%
17:00 +23°C° 0.6 mm 2 mps 749 mmHg 75%
18:00 +21°C° 0.6 mm 2 mps 749 mmHg 80%
19:00 +20°C° 0.6 mm 2 mps 749 mmHg 85%
20:00 +19°C° 0 mm 2 mps 749 mmHg 86%
21:00 +18°C° 0 mm 2 mps 750 mmHg 88%
22:00 +18°C° 0 mm 2 mps 750 mmHg 89%
23:00 +18°C° 0 mm 2 mps 750 mmHg 89%
Show more